{"data":{"norad_id":65307,"intl_designator":"2025-187C","name":"HULIANWANG DIGUI-75","alt_names":[],"object_type":"PAYLOAD","status":"ACTIVE","operator":null,"country":"PRC","launch_date":"2025-08-25","launch_site_code":"WSC","launch_vehicle":null,"mission":null,"orbit_class":"UNKNOWN","rcs_meters":null,"size_class":null,"mass_kg":null,"dimensions":null,"purposes":[],"wikipedia_slug":null,"has_3d_model":false,"image_url":null,"decayed_at":null,"tle_current":{"epoch":"2026-05-25T04:10:49.973664Z","epoch_age_seconds":53894,"freshness":"FRESH","line1":"1 65307U 25187C   26145.17418951 -.00000093  00000+0  67669-4 0  9998","line2":"2 65307  50.0093 288.1960 0000602  98.2017 261.8923 13.29322336 36643","mean_motion":13.29322336,"eccentricity":6.02e-5,"inclination_deg":50.0093,"raan_deg":288.196,"arg_perigee_deg":98.2017,"mean_anomaly_deg":261.8923,"bstar":6.7669e-5,"rev_number":3664,"period_min":108.32587108504,"perigee_km":1148.8672507981,"apogee_km":1149.7735566695,"semimajor_km":7527.4574037338,"source":"CELESTRAK","updated_at":"2026-05-25T13:38:05.299113Z"}}}